Volver al catálogo

COSMOS 1275 DEB

ActivoPO
NORAD 13074·DEBRIS·🇷🇺 Russia

Lanzado Jun 4, 1981 desde Plesetsk Cosmodrome

Loading…

Próximos Pases (próximas 24 horas)

TLE

ActualizadoSource: Space-Track

Época: Sep 14, 2026, 08:05 UTC

1 13074U 81053FA  26257.33747777  .00000355  00000-0  30281-3 0  9999
2 13074  82.9432 112.0399 0031021 354.5676 131.7704 13.84395486268845

Sigue COSMOS 1275 DEB en tiempo real con AllMySat

Download on the App Store